[[{"header":{"parameterUnit":"m.s-1","parameterCategory":1,"la1":30.2991,"la2":30.254,"lo1":-89.0895,"lo2":-89.0444,"dy":0.0017,"dx":0.0017,"nx":28,"ny":28,"refTime":"2024-04-25T09:00:00:Z","depth":0,"parameterNumber":2,"parameterNumberName":"U-component_of_WINDS"},"data":[0,0,0,0,0,0,0,0,0,0,0,0,0,0,0,0,0,0,0,0,0,0,0,0,0,0,0,0,0,0,0,0,0,0,0,0,0,0,0,0,0,0,0,0,0,0,0,0,0,0,0,0,0,0,0,0,0,0,-4.4067,-4.4068,0,-4.4114,-4.4114,-4.4115,-4.4051,-4.4048,-4.4046,-4.4044,-4.4089,-4.4092,-4.4096,0,0,0,0,0,0,0,0,0,0,0,0,0,-4.3922,-4.3925,-4.4067,-4.4068,-4.4069,-4.4114,-4.4114,-4.4115,-4.4051,-4.4048,-4.4045,-4.4043,-4.4088,-4.4092,-4.4096,0,0,0,0,0,0,0,0,0,0,0,0,0,-4.3978,-4.3926,-4.4067,-4.4042,-4.404,-4.4114,-4.4114,-4.4115,-4.4052,-4.4048,-4.4045,-4.4041,-4.4087,-4.4091,-4.4096,-4.4196,0,0,-4.4112,-4.4114,0,0,0,0,0,0,0,0,-4.3975,-4.3984,-4.4045,-4.4044,-4.4042,-4.4073,-4.4079,-4.4142,-4.4052,-4.4047,-4.4044,-4.404,-4.4086,-4.4091,-4.4107,-4.4198,-4.42,-4.4112,-4.4115,-4.4117,-4.4119,0,0,0,0,0,0,0,-4.3971,-4.3981,-4.4086,-4.4046,-4.4044,-4.4028,-4.4032,-4.4091,-4.4085,-4.4047,-4.4043,-4.4049,-4.4085,-4.4103,-4.4108,-4.42,-4.4112,-4.4116,-4.4119,-4.4121,-4.4375,-4.4378,0,0,0,0,0,0,-4.3971,-4.3978,-4.4084,-4.4087,-4.4,-4.4033,-4.4038,-4.4066,-4.4085,-4.4084,-4.4052,-4.4046,-4.4096,-4.4102,-4.4109,-4.4226,-4.4117,-4.4122,-4.4125,-4.4371,-4.4375,-4.438,0,0,0,0,0,0,-4.3968,-4.3981,-4.4082,-4.4032,-4.4043,-4.404,-4.4072,-4.4069,-4.4087,-4.4088,-4.4087,-4.4072,-4.4093,-4.4102,-4.4175,-4.4227,-4.4124,-4.4129,-4.4367,-4.4372,-4.4378,-4.4461,0,0,0,0,0,0,-4.3964,-4.398,-4.4018,-4.4033,-4.4046,-4.4148,-4.4075,-4.4073,-4.4096,-4.4089,-4.4106,-4.4106,-4.4091,-4.4168,-4.418,-4.4232,-4.4133,-4.4362,-4.4369,-4.4376,-4.4454,-4.4469,-4.4482,0,0,0,0,0,-4.3959,-4.4039,-4.402,-4.4033,-4.4094,-4.4151,-4.4159,-4.4141,-4.4101,-4.4138,-4.4139,-4.4105,-4.422,-4.4176,-4.4189,-4.4243,-4.4358,-4.4367,-4.4375,-4.4448,-4.4466,-4.4482,0,0,0,0,0,0,-4.403,-4.4041,-4.402,-4.4108,-4.4129,-4.414,-4.4187,-4.4162,-4.4194,-4.4186,-4.4162,-4.4167,-4.4244,-4.4251,-4.4202,-4.434,-4.4282,-4.4294,-4.4333,-4.435,-4.4364,-4.436,-4.4137,0,0,0,0,0,-4.4056,-4.4102,-4.4109,-4.4186,-4.4198,-4.4191,-4.4215,-4.42,-4.4221,-4.4229,-4.4236,-4.4257,-4.4297,-4.4324,-4.4362,-4.4455,-4.4457,-4.4499,-4.4513,-4.4525,-4.4534,-4.4584,-4.4602,-4.4407,-4.4407,-4.4407,0,0,-4.4109,-4.4121,-4.4152,-4.42,-4.4215,-4.4263,-4.4199,-4.4252,-4.4287,-4.4237,-4.4306,-4.4312,-4.4334,-4.4417,-4.4454,-4.4425,-4.4589,-4.4535,-4.4545,-4.4548,-4.4594,-4.4613,-4.4629,-4.4413,-4.4412,-4.4411,0,0,-4.4232,-4.4246,-4.4311,-4.4328,-4.4351,-4.4347,-4.4362,-4.4378,-4.438,-4.4449,-4.4413,-4.4454,-4.4524,-4.4541,-4.4559,-4.4689,-4.4659,-4.4702,-4.4775,-4.4824,-4.4839,-4.4853,-4.4898,-4.4915,-4.4712,-4.4713,-4.4713,0,-4.4295,-4.4366,-4.4348,-4.4404,-4.4426,-4.4385,-4.445,-4.4467,-4.4501,-4.4517,-4.4485,-4.4573,-4.4585,-4.4671,-4.4703,-4.4719,-4.4736,-4.4699,-4.4839,-4.4852,-4.4864,-4.4907,-4.4925,-4.4718,-4.4717,-4.4716,-4.4716,0,-4.4443,-4.4493,-4.4543,-4.4578,-4.4606,-4.4667,-4.4657,-4.4687,-4.4671,-4.4669,-4.474,-4.4753,-4.4792,-4.4812,-4.4795,-4.4896,-4.4878,-4.4843,-4.4783,-4.4888,-4.4928,-4.4945,-4.4725,-4.4723,-4.4721,-4.472,0,0,-4.4609,-4.4635,-4.4653,-4.4669,-4.4692,-4.473,-4.4789,-4.4828,-4.4855,-4.488,-4.4928,-4.499,-4.4958,-4.4978,-4.4963,-4.5006,-4.5107,-4.4965,-4.4965,-4.499,-4.5218,-4.5244,-4.5263,-4.5088,-4.5091,-4.5093,-4.5216,0,-4.4731,-4.4833,-4.4819,-4.4917,-4.4962,-4.4924,-4.4975,-4.4995,-4.4996,-4.5034,-4.5034,-4.5078,-4.5032,-4.5044,-4.5085,-4.5086,-4.5153,-4.5078,-4.5131,-4.5133,-4.5126,-4.5284,-4.5311,-4.5427,-4.5232,-4.5235,-4.5236,0,-4.4886,-4.4918,-4.5021,-4.5037,-4.5056,-4.5102,-4.5137,-4.5175,-4.5196,-4.5194,-4.5217,-4.5195,-4.5253,-4.5195,-4.5274,-4.5223,-4.5245,-4.5249,-4.5253,-4.5256,-4.519,-4.5291,-4.5463,-4.548,-4.5261,-4.5259,-4.5257,0,-4.4996,-4.5065,-4.5135,-4.515,-4.5171,-4.5205,-4.5215,-4.5233,-4.5258,-4.5289,-4.5304,-4.5341,-4.5361,-4.539,-4.5378,-4.5337,-4.5459,-4.54,-4.5458,-4.5458,-4.5484,-4.5482,-4.5661,-4.55,-4.55,-4.55,-4.5499,0,-4.5132,-4.5196,-4.5185,-4.5228,-4.5299,-4.5282,-4.5352,-4.5357,-4.5374,-4.5417,-4.5387,-4.5428,-4.541,-4.545,-4.5441,-4.5508,-4.5517,-4.5516,-4.5513,-4.5518,-4.5518,-4.5531,-4.5522,-4.5504,-4.5503,-4.5502,-4.5502,0,-4.5266,-4.5261,-4.5335,-4.535,-4.5356,-4.5407,-4.5419,-4.5459,-4.5458,-4.5513,-4.5525,-4.5523,-4.5568,-4.5559,-4.5609,-4.5603,-4.5686,-4.5674,-4.5679,-4.5676,-4.5734,-4.5728,-4.5926,-4.5951,-4.5775,-4.5777,-4.5778,0,-4.5353,-4.5401,-4.5422,-4.5449,-4.5462,-4.5506,-4.5532,-4.5517,-4.5544,-4.5573,-4.561,-4.5653,-4.5686,-4.576,-4.5762,-4.58,-4.5787,-4.5854,-4.5792,-4.5796,-4.5787,-4.5784,-4.5788,-4.5865,-4.5867,-4.5869,-4.587,0,-4.5507,-4.5502,-4.554,-4.5578,-4.561,-4.5638,-4.5664,-4.5688,-4.5675,-4.5708,-4.5754,-4.578,-4.5831,-4.5874,-4.5909,-4.5919,-4.5893,-4.589,-4.5905,-4.5911,-4.5911,-4.5911,-4.5711,-4.5885,-4.5884,-4.5883,-4.5882,-4.5881,-4.5619,-4.5661,-4.5682,-4.5725,-4.5743,-4.5768,-4.5807,-4.5811,-4.5849,-4.589,-4.5879,-4.5932,-4.5952,-4.5997,-4.6011,-4.6052,-4.6027,-4.6049,-4.6054,-4.606,-4.6066,-4.5906,-4.6058,-4.6058,-4.6057,-4.6057,-4.6057,0,-4.5771,-4.5783,-4.5823,-4.5861,-4.5895,-4.5869,-4.5896,-4.5926,-4.5973,-4.5994,-4.6028,-4.6081,-4.6123,-4.6129,-4.6168,-4.6199,-4.6188,-4.6209,-4.6206,-4.6209,-4.6087,-4.6069,-4.6218,-4.6218,-4.6218,-4.6218,-4.6218,-4.6218,-4.5854,-4.5922,-4.592,-4.5998,-4.6009,-4.606,-4.6078,-4.6101,-4.6118,-4.6179,-4.6214,-4.6218,-4.6233,-4.6273,-4.631,-4.631,-4.6326,-4.6352,-4.6348,-4.6234,-4.6217,-4.6202,-4.6185,-4.6356,-4.6356,-4.6466,-4.6467,-4.6468]},{"header":{"parameterUnit":"m.s-1","parameterCategory":1,"la1":30.2991,"la2":30.254,"lo1":-89.0895,"lo2":-89.0444,"dy":0.0017,"dx":0.0017,"nx":28,"ny":28,"refTime":"2024-04-25T09:00:00:Z","depth":0,"parameterNumber":3,"parameterNumberName":"V-component_of_WINDS"},"data":[0,0,0,0,0,0,0,0,0,0,0,0,0,0,0,0,0,0,0,0,0,0,0,0,0,0,0,0,0,0,0,0,0,0,0,0,0,0,0,0,0,0,0,0,0,0,0,0,0,0,0,0,0,0,0,0,0,0,4.8784,4.8784,0,4.8773,4.8773,4.8773,4.8696,4.8694,4.8692,4.869,4.8679,4.868,4.8682,0,0,0,0,0,0,0,0,0,0,0,0,0,4.8739,4.8741,4.8784,4.8784,4.8784,4.8773,4.8773,4.8773,4.8696,4.8694,4.8692,4.869,4.8678,4.868,4.8682,0,0,0,0,0,0,0,0,0,0,0,0,0,4.8747,4.8741,4.8784,4.8744,4.8741,4.8773,4.8773,4.8773,4.8697,4.8694,4.8691,4.8688,4.8678,4.868,4.8682,4.8752,0,0,4.8689,4.8689,0,0,0,0,0,0,0,0,4.8746,4.8748,4.875,4.8747,4.8743,4.8733,4.8753,4.8766,4.8697,4.8713,4.869,4.8687,4.8699,4.8699,4.8703,4.8751,4.8751,4.8689,4.869,4.8691,4.8692,0,0,0,0,0,0,0,4.8746,4.8749,4.878,4.8751,4.8746,4.8727,4.8725,4.8755,4.8722,4.8712,4.8706,4.8706,4.8697,4.8702,4.8703,4.8751,4.8689,4.8691,4.8692,4.8693,4.8856,4.8859,0,0,0,0,0,0,4.8751,4.8749,4.878,4.878,4.8738,4.873,4.8728,4.8739,4.8722,4.8716,4.8708,4.8702,4.8699,4.87,4.8702,4.8783,4.8691,4.8693,4.8694,4.8853,4.8857,4.886,0,0,0,0,0,0,4.875,4.8755,4.8781,4.8763,4.8764,4.8734,4.8747,4.874,4.8745,4.8719,4.8713,4.8719,4.8697,4.8699,4.874,4.8781,4.8694,4.8696,4.885,4.8855,4.8859,4.8945,0,0,0,0,0,0,4.8749,4.8755,4.8781,4.8764,4.8766,4.8819,4.875,4.8742,4.8749,4.8741,4.8728,4.8723,4.8695,4.8737,4.8742,4.8783,4.8698,4.8846,4.8852,4.8857,4.8939,4.8952,4.8964,0,0,0,0,0,4.8748,4.8805,4.8782,4.8787,4.8797,4.8822,4.8823,4.879,4.8753,4.8779,4.8762,4.8723,4.8777,4.8742,4.8747,4.8789,4.8843,4.885,4.8857,4.8933,4.8949,4.8964,0,0,0,0,0,0,4.8827,4.8802,4.8777,4.883,4.8829,4.8809,4.884,4.8808,4.8817,4.8809,4.8768,4.8765,4.8813,4.8805,4.8768,4.8856,4.8803,4.8811,4.8859,4.8875,4.8887,4.8888,4.8699,0,0,0,0,0,4.8851,4.8872,4.8849,4.8899,4.8899,4.887,4.888,4.8854,4.8851,4.885,4.8836,4.8835,4.8851,4.8863,4.8876,4.8938,4.8934,4.8969,4.8982,4.8992,4.8999,4.9032,4.9047,4.8883,4.8883,4.8883,0,0,4.8899,4.8888,4.8904,4.8914,4.891,4.8934,4.887,4.8897,4.8915,4.8854,4.8892,4.8883,4.8879,4.8931,4.8953,4.8925,4.9044,4.9001,4.9009,4.9011,4.904,4.9056,4.907,4.8888,4.8887,4.8886,0,0,4.9,4.8994,4.9035,4.9033,4.9028,4.9009,4.9019,4.9004,4.8996,4.9034,4.8989,4.9009,4.9038,4.9037,4.904,4.9144,4.9108,4.915,4.9215,4.9247,4.926,4.9272,4.9308,4.9322,4.9157,4.9157,4.9158,0,4.9061,4.9094,4.906,4.909,4.9096,4.9044,4.9085,4.9085,4.9085,4.909,4.906,4.9096,4.9089,4.9141,4.9166,4.9171,4.9181,4.915,4.9261,4.9272,4.9282,4.9317,4.9331,4.9162,4.9162,4.9161,4.9161,0,4.917,4.9194,4.9228,4.923,4.924,4.9276,4.9247,4.9261,4.9236,4.922,4.926,4.9251,4.9262,4.9273,4.9248,4.9321,4.9304,4.9269,4.9214,4.9304,4.9335,4.9348,4.917,4.9168,4.9166,4.9165,0,0,4.9317,4.9302,4.9314,4.9315,4.9307,4.9326,4.936,4.9372,4.9385,4.9387,4.9415,4.9442,4.9409,4.9413,4.9388,4.9417,4.95,4.9377,4.9377,4.94,4.958,4.9606,4.9622,4.9477,4.9479,4.9481,4.958,0,4.9414,4.9471,4.9442,4.9503,4.9525,4.9477,4.9507,4.9506,4.9493,4.951,4.9496,4.9515,4.9471,4.9473,4.9499,4.9484,4.9535,4.9477,4.9502,4.9503,4.9504,4.9639,4.9666,4.976,4.9592,4.9595,4.9596,0,4.9533,4.9542,4.9606,4.9595,4.9603,4.9631,4.964,4.9657,4.9655,4.9644,4.965,4.9619,4.9652,4.96,4.9645,4.9606,4.9615,4.961,4.9613,4.9613,4.9554,4.9642,4.9789,4.9803,4.9615,4.9614,4.9612,0,4.9634,4.9662,4.9704,4.9706,4.9695,4.9715,4.9712,4.9707,4.9717,4.9725,4.9731,4.9743,4.9749,4.9759,4.9733,4.9697,4.9782,4.9727,4.9773,4.9774,4.9792,4.9791,4.9942,4.98,4.9799,4.9799,4.9799,0,4.9744,4.9785,4.9749,4.9775,4.9819,4.9786,4.9831,4.9822,4.9819,4.9843,4.9802,4.9825,4.9789,4.9808,4.9788,4.9829,4.9832,4.9824,4.9818,4.9827,4.9828,4.9831,4.9824,4.9803,4.9802,4.9801,4.9801,0,4.9863,4.9841,4.9883,4.987,4.9868,4.9902,4.989,4.9914,4.9899,4.9929,4.9935,4.9911,4.9932,4.9907,4.9925,4.9912,4.9967,4.9952,4.9968,4.9963,5.0011,5.0006,5.0168,5.0188,5.0034,5.0035,5.0037,0,4.9934,4.9965,4.9956,4.9969,4.9968,4.999,4.9999,4.9969,4.9981,4.9982,5.0006,5.0024,5.0036,5.0072,5.0056,5.0071,5.0055,5.0111,5.0056,5.0065,5.0055,5.0053,5.0056,5.0121,5.0123,5.0125,5.0126,0,5.0063,5.0051,5.0067,5.008,5.0093,5.0102,5.0107,5.012,5.0088,5.0104,5.0125,5.0135,5.0155,5.0173,5.0184,5.018,5.0148,5.0143,5.0155,5.0164,5.0172,5.0168,4.9997,5.0139,5.0138,5.0137,5.0136,5.0136,5.016,5.0185,5.0183,5.0203,5.0204,5.0211,5.0233,5.0221,5.0239,5.0253,5.0234,5.0261,5.0259,5.027,5.0271,5.0291,5.0267,5.0284,5.0288,5.0292,5.0299,5.017,5.0293,5.0293,5.0292,5.0292,5.0292,0,5.0286,5.0283,5.0302,5.0311,5.0327,5.0297,5.0302,5.0317,5.0341,5.0343,5.0357,5.0382,5.0401,5.0388,5.0403,5.0422,5.0408,5.0427,5.0425,5.0424,5.032,5.0308,5.0438,5.0438,5.0438,5.0438,5.0438,5.0438,5.0353,5.0395,5.0383,5.0426,5.0422,5.0449,5.0454,5.046,5.0462,5.0492,5.0508,5.0499,5.0495,5.051,5.0526,5.0522,5.0529,5.0554,5.0544,5.0446,5.0432,5.0418,5.0407,5.0556,5.0556,5.0647,5.0648,5.0648]}]]